Time,TemperatureF,DewpointF,PressureIn,WindDirection,WindDirectionDegrees,WindSpeedMPH,WindSpeedGustMPH,Humidity,HourlyPrecipIn,Conditions,Clouds,dailyrainin,SoftwareType,DateUTC
2013-03-11 00:00:00,42.5,40.9,30.42,South,175,0.0,0.0,94,0.00,OVC,,0.05,WeatherDisplay:10.37,2013-03-11 07:00:00,
2013-03-11 00:05:00,42.5,40.9,30.41,South,175,0.0,0.0,94,0.00,RA,,0.00,WeatherDisplay:10.37,2013-03-11 07:05:00,
2013-03-11 00:10:00,42.6,41.0,30.41,South,175,0.0,0.0,94,0.00,RA,,0.00,WeatherDisplay:10.37,2013-03-11 07:10:00,
2013-03-11 00:15:00,42.6,41.0,30.41,South,175,3.5,3.5,94,0.00,OVC,,0.00,WeatherDisplay:10.37,2013-03-11 07:15:00,
2013-03-11 00:20:00,42.5,40.9,30.41,South,175,2.3,2.3,94,0.00,OVC,,0.00,WeatherDisplay:10.37,2013-03-11 07:20:00,
2013-03-11 00:25:00,42.4,40.8,30.42,South,175,0.0,0.0,94,0.00,OVC,,0.00,WeatherDisplay:10.37,2013-03-11 07:25:00,
2013-03-11 00:30:00,42.3,40.7,30.41,South,175,0.0,0.0,94,0.00,OVC,,0.00,WeatherDisplay:10.37,2013-03-11 07:30:00,
2013-03-11 00:35:00,42.3,40.7,30.42,South,175,0.0,0.0,94,0.00,OVC,,0.00,WeatherDisplay:10.37,2013-03-11 07:35:00,
2013-03-11 00:40:00,42.3,40.7,30.42,South,179,1.0,1.0,94,0.00,OVC,,0.00,WeatherDisplay:10.37,2013-03-11 07:40:00,
2013-03-11 00:45:00,42.3,40.7,30.42,South,180,1.0,0.0,94,0.00,OVC,,0.00,WeatherDisplay:10.37,2013-03-11 07:45:00,
2013-03-11 00:50:00,42.3,40.7,30.42,South,180,0.0,0.0,94,0.00,OVC,,0.00,WeatherDisplay:10.37,2013-03-11 07:50:00,
2013-03-11 00:55:00,42.3,40.7,30.42,South,180,0.0,0.0,94,0.00,OVC,,0.00,WeatherDisplay:10.37,2013-03-11 07:55:00,
2013-03-11 01:00:00,42.3,40.7,30.42,South,180,0.0,0.0,94,0.00,OVC,,0.00,WeatherDisplay:10.37,2013-03-11 08:00:00,
2013-03-11 01:05:00,42.4,40.8,30.42,South,180,0.0,0.0,94,0.00,OVC,,0.00,WeatherDisplay:10.37,2013-03-11 08:05:00,
2013-03-11 01:10:00,42.4,40.8,30.42,South,180,0.0,0.0,94,0.00,OVC,,0.00,WeatherDisplay:10.37,2013-03-11 08:10:00,
2013-03-11 01:15:00,42.3,40.7,30.42,South,180,0.0,0.0,94,0.00,OVC,,0.00,WeatherDisplay:10.37,2013-03-11 08:15:00,
2013-03-11 01:20:00,42.4,40.8,30.42,South,180,0.0,0.0,94,0.00,OVC,,0.00,WeatherDisplay:10.37,2013-03-11 08:20:00,
2013-03-11 01:25:00,42.3,40.7,30.42,South,180,0.0,0.0,94,0.00,OVC,,0.00,WeatherDisplay:10.37,2013-03-11 08:25:00,
2013-03-11 01:30:00,42.4,40.8,30.42,South,180,0.0,0.0,94,0.00,OVC,,0.00,WeatherDisplay:10.37,2013-03-11 08:30:00,
2013-03-11 01:35:00,42.4,40.8,30.42,South,180,0.0,0.0,94,0.00,OVC,,0.00,WeatherDisplay:10.37,2013-03-11 08:35:00,
2013-03-11 01:40:00,42.4,40.8,30.42,South,180,0.0,0.0,94,0.00,OVC,,0.00,WeatherDisplay:10.37,2013-03-11 08:40:00,
2013-03-11 01:45:00,42.4,40.8,30.42,South,180,0.0,0.0,94,0.00,OVC,,0.00,WeatherDisplay:10.37,2013-03-11 08:45:00,
2013-03-11 01:50:00,42.4,40.8,30.41,South,180,0.0,0.0,94,0.00,OVC,,0.00,WeatherDisplay:10.37,2013-03-11 08:50:00,
2013-03-11 01:55:00,42.5,40.9,30.41,South,180,0.0,0.0,94,0.00,OVC,,0.00,WeatherDisplay:10.37,2013-03-11 08:55:00,
2013-03-11 02:00:00,42.5,40.9,30.41,South,180,0.0,0.0,94,0.00,OVC,,0.00,WeatherDisplay:10.37,2013-03-11 09:00:00,
2013-03-11 02:05:00,42.5,40.9,30.42,South,180,0.0,0.0,94,0.00,OVC,,0.00,WeatherDisplay:10.37,2013-03-11 09:05:00,
2013-03-11 02:10:00,42.5,40.9,30.42,South,180,0.0,0.0,94,0.00,OVC,,0.00,WeatherDisplay:10.37,2013-03-11 09:10:00,
2013-03-11 02:15:00,42.5,40.9,30.42,South,180,0.0,0.0,94,0.00,OVC,,0.00,WeatherDisplay:10.37,2013-03-11 09:15:00,
2013-03-11 02:20:00,42.5,40.9,30.42,South,180,0.0,0.0,94,0.00,OVC,,0.00,WeatherDisplay:10.37,2013-03-11 09:20:00,
2013-03-11 02:25:00,42.5,40.9,30.42,South,180,0.0,0.0,94,0.00,OVC,,0.00,WeatherDisplay:10.37,2013-03-11 09:25:00,
2013-03-11 02:30:00,42.5,40.9,30.42,South,180,0.0,0.0,94,0.00,OVC,,0.00,WeatherDisplay:10.37,2013-03-11 09:30:00,
2013-03-11 02:35:00,42.6,41.0,30.42,South,180,0.0,0.0,94,0.00,OVC,,0.00,WeatherDisplay:10.37,2013-03-11 09:35:00,
2013-03-11 02:40:00,42.5,40.9,30.42,South,180,0.0,0.0,94,0.00,OVC,,0.00,WeatherDisplay:10.37,2013-03-11 09:40:00,
2013-03-11 02:45:00,42.6,41.0,30.42,South,180,0.0,0.0,94,0.00,OVC,,0.00,WeatherDisplay:10.37,2013-03-11 09:45:00,
2013-03-11 02:50:00,42.6,41.0,30.42,South,180,0.0,0.0,94,0.00,OVC,,0.00,WeatherDisplay:10.37,2013-03-11 09:50:00,
2013-03-11 02:55:00,42.6,41.0,30.42,South,180,0.0,0.0,94,0.00,OVC,,0.00,WeatherDisplay:10.37,2013-03-11 09:55:00,
2013-03-11 03:00:00,42.5,40.9,30.42,South,180,0.0,0.2,94,0.00,OVC,,0.00,WeatherDisplay:10.37,2013-03-11 10:00:00,
2013-03-11 03:05:00,42.4,40.8,30.42,South,180,0.0,0.0,94,0.00,OVC,,0.00,WeatherDisplay:10.37,2013-03-11 10:05:00,
2013-03-11 03:10:00,42.4,40.8,30.42,South,180,0.0,0.0,94,0.00,OVC,,0.00,WeatherDisplay:10.37,2013-03-11 10:10:00,
2013-03-11 03:15:00,42.4,40.8,30.42,South,180,0.0,0.0,94,0.00,OVC,,0.00,WeatherDisplay:10.37,2013-03-11 10:15:00,
2013-03-11 03:20:00,42.4,40.8,30.42,South,180,0.0,0.0,94,0.00,OVC,,0.00,WeatherDisplay:10.37,2013-03-11 10:20:00,
2013-03-11 03:25:00,42.4,40.8,30.42,South,180,0.0,0.0,94,0.00,OVC,,0.00,WeatherDisplay:10.37,2013-03-11 10:25:00,
2013-03-11 03:30:00,42.3,40.7,30.42,South,180,0.0,0.0,94,0.00,OVC,,0.00,WeatherDisplay:10.37,2013-03-11 10:30:00,
2013-03-11 03:35:00,42.4,40.8,30.41,South,180,0.0,0.0,94,0.00,OVC,,0.00,WeatherDisplay:10.37,2013-03-11 10:35:00,
2013-03-11 03:40:00,42.4,40.8,30.41,South,180,0.0,0.0,94,0.00,OVC,,0.00,WeatherDisplay:10.37,2013-03-11 10:40:00,
2013-03-11 03:45:00,42.4,40.8,30.42,South,180,0.0,0.0,94,0.00,OVC,,0.00,WeatherDisplay:10.37,2013-03-11 10:45:00,
2013-03-11 03:50:00,42.5,40.9,30.41,South,180,0.0,0.0,94,0.00,OVC,,0.00,WeatherDisplay:10.37,2013-03-11 10:50:00,
2013-03-11 03:55:00,42.5,40.9,30.41,South,180,0.0,0.0,94,0.00,OVC,,0.00,WeatherDisplay:10.37,2013-03-11 10:55:00,
2013-03-11 04:00:00,42.5,40.9,30.41,South,180,0.0,0.0,94,0.00,OVC,,0.00,WeatherDisplay:10.37,2013-03-11 11:00:00,
2013-03-11 04:05:00,42.6,41.0,30.41,South,180,0.0,0.0,94,0.00,OVC,,0.00,WeatherDisplay:10.37,2013-03-11 11:05:00,
2013-03-11 04:10:00,42.6,41.0,30.41,South,180,0.0,0.0,94,0.00,OVC,,0.00,WeatherDisplay:10.37,2013-03-11 11:10:00,
2013-03-11 04:15:00,42.6,41.0,30.41,South,180,0.0,0.0,94,0.00,OVC,,0.00,WeatherDisplay:10.37,2013-03-11 11:15:00,
2013-03-11 04:20:00,42.6,41.0,30.41,South,180,0.0,0.0,94,0.00,OVC,,0.00,WeatherDisplay:10.37,2013-03-11 11:20:00,
2013-03-11 04:25:00,42.6,41.0,30.41,South,180,0.0,0.0,94,0.00,OVC,,0.00,WeatherDisplay:10.37,2013-03-11 11:25:00,
2013-03-11 04:30:00,42.6,41.0,30.40,South,180,0.0,0.0,94,0.00,OVC,,0.00,WeatherDisplay:10.37,2013-03-11 11:30:00,
2013-03-11 04:35:00,42.6,41.0,30.40,South,180,0.0,0.0,94,0.00,OVC,,0.00,WeatherDisplay:10.37,2013-03-11 11:35:00,
2013-03-11 04:40:00,42.6,41.0,30.40,South,180,0.0,0.0,94,0.00,OVC,,0.00,WeatherDisplay:10.37,2013-03-11 11:40:00,
2013-03-11 04:45:00,42.5,40.9,30.40,South,180,0.0,0.0,94,0.00,OVC,,0.00,WeatherDisplay:10.37,2013-03-11 11:45:00,
2013-03-11 04:50:00,42.6,41.0,30.40,South,180,0.0,0.0,94,0.00,OVC,,0.00,WeatherDisplay:10.37,2013-03-11 11:50:00,
2013-03-11 04:55:00,42.5,40.9,30.40,South,180,0.0,0.0,94,0.01,RA,,0.01,WeatherDisplay:10.37,2013-03-11 11:55:00,
2013-03-11 05:00:00,42.5,40.9,30.40,South,180,0.0,0.0,94,0.01,RA,,0.01,WeatherDisplay:10.37,2013-03-11 12:00:00,
2013-03-11 05:05:00,42.5,40.9,30.39,South,180,0.0,0.0,94,0.01,OVC,,0.01,WeatherDisplay:10.37,2013-03-11 12:05:00,
2013-03-11 05:10:00,42.5,40.9,30.40,South,180,0.0,0.0,94,0.01,OVC,,0.01,WeatherDisplay:10.37,2013-03-11 12:10:00,
2013-03-11 05:15:00,42.5,40.9,30.40,South,180,0.0,0.0,94,0.01,OVC,,0.01,WeatherDisplay:10.37,2013-03-11 12:15:00,
2013-03-11 05:20:00,42.5,40.9,30.40,South,180,1.1,1.1,94,0.01,OVC,,0.01,WeatherDisplay:10.37,2013-03-11 12:20:00,
2013-03-11 05:25:00,42.4,40.8,30.39,South,180,2.3,2.3,94,0.01,OVC,,0.01,WeatherDisplay:10.37,2013-03-11 12:25:00,
2013-03-11 05:30:00,42.4,40.8,30.40,South,180,0.0,0.0,94,0.01,OVC,,0.01,WeatherDisplay:10.37,2013-03-11 12:30:00,
2013-03-11 05:35:00,42.3,40.7,30.40,South,180,0.0,0.0,94,0.01,OVC,,0.01,WeatherDisplay:10.37,2013-03-11 12:35:00,
2013-03-11 05:40:00,42.3,40.7,30.40,South,180,0.0,0.0,94,0.01,OVC,,0.01,WeatherDisplay:10.37,2013-03-11 12:40:00,
2013-03-11 05:45:00,42.3,40.7,30.40,South,180,0.0,0.0,94,0.01,OVC,,0.01,WeatherDisplay:10.37,2013-03-11 12:45:00,
2013-03-11 05:50:00,42.3,40.7,30.39,South,180,0.0,0.0,94,0.01,OVC,,0.01,WeatherDisplay:10.37,2013-03-11 12:50:00,
2013-03-11 05:55:00,42.2,40.6,30.40,South,180,0.0,0.0,94,0.00,OVC,,0.01,WeatherDisplay:10.37,2013-03-11 12:55:00,
2013-03-11 06:00:00,42.3,40.7,30.40,South,180,0.0,0.0,94,0.00,OVC,,0.01,WeatherDisplay:10.37,2013-03-11 13:00:00,
2013-03-11 06:05:00,42.3,40.7,30.40,South,180,0.0,0.0,94,0.00,OVC,,0.01,WeatherDisplay:10.37,2013-03-11 13:05:00,
2013-03-11 06:10:00,42.3,40.7,30.40,South,180,0.0,0.0,94,0.00,OVC,,0.01,WeatherDisplay:10.37,2013-03-11 13:10:00,
2013-03-11 06:15:00,42.3,40.7,30.40,South,180,0.0,0.0,94,0.00,OVC,,0.01,WeatherDisplay:10.37,2013-03-11 13:15:00,
2013-03-11 06:20:00,42.3,40.7,30.39,South,180,0.0,0.0,94,0.00,OVC,,0.01,WeatherDisplay:10.37,2013-03-11 13:20:00,
2013-03-11 06:25:00,42.3,40.7,30.39,South,180,0.0,0.0,94,0.00,OVC,,0.01,WeatherDisplay:10.37,2013-03-11 13:25:00,
2013-03-11 06:30:00,42.3,40.7,30.38,South,180,0.0,0.0,94,0.00,OVC,,0.01,WeatherDisplay:10.37,2013-03-11 13:30:00,
2013-03-11 06:35:00,42.3,40.7,30.38,South,180,0.0,0.0,94,0.00,OVC,,0.01,WeatherDisplay:10.37,2013-03-11 13:35:00,
2013-03-11 06:40:00,42.3,40.7,30.39,South,180,0.0,0.0,94,0.00,OVC,,0.01,WeatherDisplay:10.37,2013-03-11 13:40:00,
2013-03-11 06:45:00,42.3,40.7,30.39,South,180,0.0,0.0,94,0.00,OVC,,0.01,WeatherDisplay:10.37,2013-03-11 13:45:00,
2013-03-11 06:50:00,42.4,40.8,30.39,South,180,0.0,0.0,94,0.00,OVC,,0.01,WeatherDisplay:10.37,2013-03-11 13:50:00,
2013-03-11 06:55:00,42.4,40.8,30.39,South,180,0.0,0.0,94,0.00,OVC,,0.01,WeatherDisplay:10.37,2013-03-11 13:55:00,
2013-03-11 07:00:00,42.4,40.8,30.40,South,180,0.0,0.0,94,0.00,OVC,,0.01,WeatherDisplay:10.37,2013-03-11 14:00:00,
2013-03-11 07:05:00,42.4,40.8,30.39,South,180,0.0,0.0,94,0.00,OVC,,0.01,WeatherDisplay:10.37,2013-03-11 14:05:00,
2013-03-11 07:10:00,42.4,40.8,30.38,South,180,0.0,0.0,94,0.00,OVC,,0.01,WeatherDisplay:10.37,2013-03-11 14:10:00,
2013-03-11 07:15:00,42.4,40.8,30.38,South,180,0.0,0.0,94,0.00,OVC,,0.01,WeatherDisplay:10.37,2013-03-11 14:15:00,
2013-03-11 07:20:00,42.4,40.8,30.37,South,180,0.0,0.0,94,0.00,OVC,,0.01,WeatherDisplay:10.37,2013-03-11 14:20:00,
2013-03-11 07:25:00,42.3,40.7,30.38,South,180,0.0,0.0,94,0.00,OVC,,0.01,WeatherDisplay:10.37,2013-03-11 14:25:00,
2013-03-11 07:30:00,42.3,40.7,30.38,South,180,0.0,0.0,94,0.00,OVC,,0.01,WeatherDisplay:10.37,2013-03-11 14:30:00,
2013-03-11 07:35:00,42.3,40.7,30.38,South,180,0.0,0.0,94,0.00,OVC,,0.01,WeatherDisplay:10.37,2013-03-11 14:35:00,
2013-03-11 07:40:00,42.2,40.6,30.38,South,180,0.0,0.0,94,0.00,OVC,,0.01,WeatherDisplay:10.37,2013-03-11 14:40:00,
2013-03-11 07:45:00,42.3,40.7,30.38,South,180,0.0,0.0,94,0.00,OVC,,0.01,WeatherDisplay:10.37,2013-03-11 14:45:00,
2013-03-11 07:50:00,42.3,40.7,30.38,South,180,0.0,0.0,94,0.00,OVC,,0.01,WeatherDisplay:10.37,2013-03-11 14:50:00,
2013-03-11 07:55:00,42.3,40.7,30.38,South,180,0.0,0.0,94,0.00,OVC,,0.01,WeatherDisplay:10.37,2013-03-11 14:55:00,
2013-03-11 08:00:00,42.3,40.7,30.38,South,180,0.0,0.0,94,0.00,OVC,,0.01,WeatherDisplay:10.37,2013-03-11 15:00:00,
2013-03-11 08:05:00,42.4,40.8,30.38,South,180,0.0,0.0,94,0.00,OVC,,0.01,WeatherDisplay:10.37,2013-03-11 15:05:00,
2013-03-11 08:10:00,42.5,40.9,30.38,South,180,0.0,0.0,94,0.00,OVC,,0.01,WeatherDisplay:10.37,2013-03-11 15:10:00,
2013-03-11 08:15:00,42.5,40.9,30.38,South,180,0.0,0.0,94,0.00,OVC,,0.01,WeatherDisplay:10.37,2013-03-11 15:15:00,
2013-03-11 08:20:00,42.5,40.9,30.38,South,180,0.0,0.0,94,0.00,OVC,,0.01,WeatherDisplay:10.37,2013-03-11 15:20:00,
2013-03-11 08:25:00,42.6,41.0,30.38,South,180,0.0,0.0,94,0.00,OVC,,0.01,WeatherDisplay:10.37,2013-03-11 15:25:00,
2013-03-11 08:30:00,42.6,41.0,30.38,South,180,0.0,0.0,94,0.00,OVC,,0.01,WeatherDisplay:10.37,2013-03-11 15:30:00,
2013-03-11 08:35:00,42.7,41.1,30.38,South,180,0.0,0.0,94,0.00,OVC,,0.01,WeatherDisplay:10.37,2013-03-11 15:35:00,
2013-03-11 08:40:00,42.8,41.2,30.38,South,180,0.0,0.0,94,0.00,OVC,,0.01,WeatherDisplay:10.37,2013-03-11 15:40:00,
2013-03-11 08:45:00,42.9,41.3,30.38,South,180,0.0,0.0,94,0.00,OVC,,0.01,WeatherDisplay:10.37,2013-03-11 15:45:00,
2013-03-11 08:50:00,42.9,41.3,30.38,South,180,0.0,0.0,94,0.00,OVC,,0.01,WeatherDisplay:10.37,2013-03-11 15:50:00,
2013-03-11 08:55:00,43.0,41.4,30.38,South,180,0.0,0.0,94,0.00,OVC,,0.01,WeatherDisplay:10.37,2013-03-11 15:55:00,
2013-03-11 09:00:00,43.0,41.4,30.38,South,180,0.0,0.0,94,0.00,OVC,,0.01,WeatherDisplay:10.37,2013-03-11 16:00:00,
2013-03-11 09:05:00,43.0,41.4,30.39,South,180,0.0,0.0,94,0.00,OVC,,0.01,WeatherDisplay:10.37,2013-03-11 16:05:00,
2013-03-11 09:10:00,43.1,41.5,30.39,South,180,0.0,0.0,94,0.00,OVC,,0.01,WeatherDisplay:10.37,2013-03-11 16:10:00,
2013-03-11 09:15:00,43.1,41.5,30.38,South,180,1.1,1.1,94,0.00,OVC,,0.01,WeatherDisplay:10.37,2013-03-11 16:15:00,
2013-03-11 09:20:00,43.0,41.4,30.39,South,180,0.0,0.0,94,0.00,OVC,,0.01,WeatherDisplay:10.37,2013-03-11 16:20:00,
2013-03-11 09:25:00,42.9,41.3,30.39,South,180,1.1,1.1,94,0.00,OVC,,0.01,WeatherDisplay:10.37,2013-03-11 16:25:00,
2013-03-11 09:30:00,42.9,41.3,30.39,South,180,2.3,2.3,94,0.00,OVC,,0.01,WeatherDisplay:10.37,2013-03-11 16:30:00,
2013-03-11 09:35:00,42.9,41.3,30.39,South,180,2.3,2.3,94,0.00,OVC,,0.01,WeatherDisplay:10.37,2013-03-11 16:35:00,
2013-03-11 09:40:00,42.9,41.3,30.39,South,180,2.3,2.3,94,0.00,OVC,,0.01,WeatherDisplay:10.37,2013-03-11 16:40:00,
2013-03-11 09:45:00,42.9,41.3,30.39,South,180,0.0,0.0,94,0.00,OVC,,0.01,WeatherDisplay:10.37,2013-03-11 16:45:00,
2013-03-11 09:50:00,43.0,41.4,30.39,South,180,2.3,2.3,94,0.00,OVC,,0.01,WeatherDisplay:10.37,2013-03-11 16:50:00,
2013-03-11 09:55:00,43.2,41.6,30.39,South,180,2.3,2.3,94,0.00,OVC,,0.01,WeatherDisplay:10.37,2013-03-11 16:55:00,
2013-03-11 10:00:00,43.3,41.7,30.39,South,180,1.1,0.0,94,0.00,OVC,,0.01,WeatherDisplay:10.37,2013-03-11 17:00:00,
2013-03-11 10:05:00,43.4,41.8,30.39,South,180,1.1,1.1,94,0.00,OVC,,0.01,WeatherDisplay:10.37,2013-03-11 17:05:00,
2013-03-11 10:10:00,43.6,42.0,30.39,South,185,3.5,3.5,94,0.00,OVC,,0.01,WeatherDisplay:10.37,2013-03-11 17:10:00,
2013-03-11 10:15:00,43.8,42.5,30.38,South,185,3.5,3.5,95,0.00,OVC,,0.01,WeatherDisplay:10.37,2013-03-11 17:15:00,
2013-03-11 10:20:00,44.0,42.4,30.38,South,185,2.3,2.3,94,0.00,OVC,,0.01,WeatherDisplay:10.37,2013-03-11 17:20:00,
2013-03-11 10:25:00,44.0,42.4,30.38,South,185,3.5,3.5,94,0.00,OVC,,0.01,WeatherDisplay:10.37,2013-03-11 17:25:00,
2013-03-11 10:30:00,44.1,42.5,30.38,South,185,1.0,0.0,94,0.00,OVC,,0.01,WeatherDisplay:10.37,2013-03-11 17:30:00,
2013-03-11 10:35:00,44.1,42.5,30.39,South,185,2.3,2.3,94,0.00,OVC,,0.01,WeatherDisplay:10.37,2013-03-11 17:35:00,
2013-03-11 10:40:00,44.2,42.6,30.39,South,185,3.0,3.0,94,0.00,OVC,,0.01,WeatherDisplay:10.37,2013-03-11 17:40:00,
2013-03-11 10:45:00,44.2,42.6,30.38,South,185,2.3,2.3,94,0.00,OVC,,0.01,WeatherDisplay:10.37,2013-03-11 17:45:00,
2013-03-11 10:50:00,44.2,42.6,30.38,South,185,0.0,0.0,94,0.00,OVC,,0.01,WeatherDisplay:10.37,2013-03-11 17:50:00,
2013-03-11 10:55:00,44.3,43.0,30.38,South,185,1.1,1.1,95,0.00,OVC,,0.01,WeatherDisplay:10.37,2013-03-11 17:55:00,
2013-03-11 11:00:00,44.6,43.3,30.38,South,185,3.5,3.5,95,0.00,OVC,,0.01,WeatherDisplay:10.37,2013-03-11 18:00:00,
2013-03-11 11:05:00,45.0,43.7,30.38,South,185,1.1,1.1,95,0.00,OVC,,0.01,WeatherDisplay:10.37,2013-03-11 18:05:00,
2013-03-11 11:10:00,45.5,43.9,30.38,South,189,6.0,6.0,94,0.00,OVC,,0.01,WeatherDisplay:10.37,2013-03-11 18:10:00,
2013-03-11 11:15:00,45.6,44.0,30.38,SSW,205,4.6,4.6,94,0.00,OVC,,0.01,WeatherDisplay:10.37,2013-03-11 18:15:00,
2013-03-11 11:20:00,45.8,44.4,30.38,SSW,204,5.8,5.8,95,0.00,OVC,,0.01,WeatherDisplay:10.37,2013-03-11 18:20:00,
2013-03-11 11:25:00,45.8,44.2,30.38,SSW,196,3.5,3.5,94,0.00,OVC,,0.01,WeatherDisplay:10.37,2013-03-11 18:25:00,
2013-03-11 11:30:00,46.2,44.8,30.38,SSW,195,2.3,2.3,95,0.00,OVC,,0.01,WeatherDisplay:10.37,2013-03-11 18:30:00,
2013-03-11 11:35:00,46.2,44.8,30.38,SSW,194,3.5,3.5,95,0.00,OVC,,0.01,WeatherDisplay:10.37,2013-03-11 18:35:00,
2013-03-11 11:40:00,46.0,44.4,30.37,SSW,194,3.5,3.5,94,0.00,OVC,,0.01,WeatherDisplay:10.37,2013-03-11 18:40:00,
2013-03-11 11:45:00,46.1,44.7,30.37,SSW,194,3.5,3.5,95,0.00,OVC,,0.01,WeatherDisplay:10.37,2013-03-11 18:45:00,
2013-03-11 11:50:00,46.2,44.6,30.37,SSW,193,3.5,3.5,94,0.00,OVC,,0.01,WeatherDisplay:10.37,2013-03-11 18:50:00,
2013-03-11 11:55:00,46.3,44.7,30.37,SSW,194,2.3,2.3,94,0.00,OVC,,0.01,WeatherDisplay:10.37,2013-03-11 18:55:00,
2013-03-11 12:00:00,46.4,44.8,30.37,SSW,194,3.5,3.5,94,0.00,OVC,,0.01,WeatherDisplay:10.37,2013-03-11 19:00:00,
2013-03-11 12:05:00,46.7,45.1,30.36,SE,144,1.1,1.4,94,0.00,OVC,,0.01,WeatherDisplay:10.37,2013-03-11 19:05:00,
2013-03-11 12:10:00,46.9,45.3,30.36,SSE,147,3.5,3.5,94,0.00,OVC,,0.01,WeatherDisplay:10.37,2013-03-11 19:10:00,
2013-03-11 12:15:00,47.2,45.6,30.36,SSW,192,3.5,3.5,94,0.00,OVC,,0.01,WeatherDisplay:10.37,2013-03-11 19:15:00,
2013-03-11 12:20:00,47.4,45.8,30.36,South,173,3.5,3.5,94,0.00,OVC,,0.01,WeatherDisplay:10.37,2013-03-11 19:20:00,
2013-03-11 12:25:00,47.6,45.7,30.36,SSW,201,3.5,3.5,93,0.00,OVC,,0.01,WeatherDisplay:10.37,2013-03-11 19:25:00,
2013-03-11 12:30:00,47.8,45.9,30.36,SSW,204,5.8,5.8,93,0.00,OVC,,0.01,WeatherDisplay:10.37,2013-03-11 19:30:00,
2013-03-11 12:35:00,47.7,45.5,30.35,SSW,207,5.8,5.8,92,0.00,OVC,,0.01,WeatherDisplay:10.37,2013-03-11 19:35:00,
2013-03-11 12:40:00,47.7,45.5,30.35,SSW,197,4.6,4.6,92,0.00,OVC,,0.01,WeatherDisplay:10.37,2013-03-11 19:40:00,
2013-03-11 12:45:00,47.9,45.7,30.35,SSE,167,4.6,4.6,92,0.00,OVC,,0.01,WeatherDisplay:10.37,2013-03-11 19:45:00,
2013-03-11 12:50:00,47.9,45.4,30.35,South,175,4.6,4.6,91,0.00,OVC,,0.01,WeatherDisplay:10.37,2013-03-11 19:50:00,
2013-03-11 12:55:00,47.9,45.4,30.35,SSE,150,5.8,5.8,91,0.00,OVC,,0.01,WeatherDisplay:10.37,2013-03-11 19:55:00,
2013-03-11 13:00:00,48.0,45.2,30.35,South,185,6.9,6.9,90,0.00,OVC,,0.01,WeatherDisplay:10.37,2013-03-11 20:00:00,
2013-03-11 13:05:00,47.6,45.1,30.35,South,177,6.9,6.9,91,0.00,OVC,,0.01,WeatherDisplay:10.37,2013-03-11 20:05:00,
2013-03-11 13:10:00,47.4,44.9,30.35,South,175,5.8,5.8,91,0.00,OVC,,0.01,WeatherDisplay:10.37,2013-03-11 20:10:00,
2013-03-11 13:15:00,47.3,44.8,30.35,South,190,8.0,8.0,91,0.00,OVC,,0.01,WeatherDisplay:10.37,2013-03-11 20:15:00,
2013-03-11 13:20:00,47.3,44.8,30.35,South,191,9.2,9.2,91,0.00,OVC,,0.01,WeatherDisplay:10.37,2013-03-11 20:20:00,
2013-03-11 13:25:00,47.2,44.7,30.34,South,187,4.6,4.6,91,0.00,OVC,,0.01,WeatherDisplay:10.37,2013-03-11 20:25:00,
2013-03-11 13:30:00,47.4,45.2,30.34,South,171,5.8,5.8,92,0.00,OVC,,0.01,WeatherDisplay:10.37,2013-03-11 20:30:00,
2013-03-11 13:35:00,47.6,45.4,30.34,SSE,160,6.9,6.9,92,0.00,OVC,,0.01,WeatherDisplay:10.37,2013-03-11 20:35:00,
2013-03-11 13:40:00,47.8,45.6,30.34,South,190,6.9,6.9,92,0.00,OVC,,0.01,WeatherDisplay:10.37,2013-03-11 20:40:00,
2013-03-11 13:45:00,47.9,45.7,30.34,SSE,150,6.9,6.9,92,0.00,OVC,,0.01,WeatherDisplay:10.37,2013-03-11 20:45:00,
2013-03-11 13:50:00,48.1,45.9,30.34,SSW,192,8.1,8.1,92,0.00,OVC,,0.01,WeatherDisplay:10.37,2013-03-11 20:50:00,
2013-03-11 13:55:00,48.0,45.5,30.33,SE,138,6.9,6.9,91,0.00,OVC,,0.01,WeatherDisplay:10.37,2013-03-11 20:55:00,
2013-03-11 14:00:00,48.2,45.7,30.33,South,185,3.5,3.5,91,0.00,OVC,,0.01,WeatherDisplay:10.37,2013-03-11 21:00:00,
2013-03-11 14:05:00,48.3,45.8,30.33,SSW,192,10.4,10.4,91,0.00,OVC,,0.01,WeatherDisplay:10.37,2013-03-11 21:05:00,
2013-03-11 14:10:00,48.7,46.2,30.33,SE,146,5.8,5.8,91,0.00,OVC,,0.01,WeatherDisplay:10.37,2013-03-11 21:10:00,
2013-03-11 14:16:00,48.7,45.9,30.32,SSE,161,8.1,8.1,90,0.00,OVC,,0.01,WeatherDisplay:10.37,2013-03-11 21:16:00,
2013-03-11 14:21:00,48.9,46.1,30.33,SSE,150,5.8,5.8,90,0.00,OVC,,0.01,WeatherDisplay:10.37,2013-03-11 21:21:00,
2013-03-11 14:26:00,48.8,46.0,30.33,South,177,6.9,6.9,90,0.00,OVC,,0.01,WeatherDisplay:10.37,2013-03-11 21:26:00,
2013-03-11 14:31:00,48.6,45.8,30.33,South,176,4.6,4.6,90,0.00,OVC,,0.01,WeatherDisplay:10.37,2013-03-11 21:31:00,
2013-03-11 14:36:00,48.7,45.9,30.32,SSE,163,6.9,6.9,90,0.00,OVC,,0.01,WeatherDisplay:10.37,2013-03-11 21:36:00,
2013-03-11 14:41:00,48.5,45.7,30.32,SSE,161,8.1,8.1,90,0.00,OVC,,0.01,WeatherDisplay:10.37,2013-03-11 21:41:00,
2013-03-11 14:46:00,48.4,45.6,30.32,South,170,3.5,3.5,90,0.00,OVC,,0.01,WeatherDisplay:10.37,2013-03-11 21:46:00,
2013-03-11 14:51:00,48.4,45.6,30.32,SSE,165,4.6,4.6,90,0.00,OVC,,0.01,WeatherDisplay:10.37,2013-03-11 21:51:00,
2013-03-11 14:56:00,48.4,45.6,30.32,South,171,6.9,6.9,90,0.00,OVC,,0.01,WeatherDisplay:10.37,2013-03-11 21:56:00,
2013-03-11 15:01:00,48.5,45.7,30.31,SSW,194,6.0,6.0,90,0.00,OVC,,0.01,WeatherDisplay:10.37,2013-03-11 22:01:00,
2013-03-11 15:07:00,48.7,45.9,30.31,SSE,159,4.0,4.0,90,0.00,OVC,,0.01,WeatherDisplay:10.37,2013-03-11 22:07:00,
2013-03-11 15:12:00,48.9,45.8,30.31,SSE,148,10.4,10.4,89,0.00,OVC,,0.01,WeatherDisplay:10.37,2013-03-11 22:12:00,
2013-03-11 15:17:00,49.0,45.6,30.30,SSE,152,10.4,10.4,88,0.00,OVC,,0.01,WeatherDisplay:10.37,2013-03-11 22:17:00,
2013-03-11 15:22:00,49.0,45.3,30.30,SSE,157,9.2,9.2,87,0.00,OVC,,0.01,WeatherDisplay:10.37,2013-03-11 22:22:00,
2013-03-11 15:27:00,49.1,45.4,30.31,SSE,153,6.9,6.9,87,0.00,OVC,,0.01,WeatherDisplay:10.37,2013-03-11 22:27:00,
2013-03-11 15:32:00,49.2,45.5,30.31,SSE,150,4.0,4.0,87,0.00,OVC,,0.01,WeatherDisplay:10.37,2013-03-11 22:32:00,
2013-03-11 15:37:00,49.3,45.6,30.30,SSE,156,5.0,5.0,87,0.00,OVC,,0.01,WeatherDisplay:10.37,2013-03-11 22:37:00,
2013-03-11 15:42:00,49.2,45.2,30.30,South,177,6.9,6.9,86,0.00,OVC,,0.01,WeatherDisplay:10.37,2013-03-11 22:42:00,
2013-03-11 15:47:00,49.1,45.4,30.30,South,182,9.2,9.2,87,0.00,OVC,,0.01,WeatherDisplay:10.37,2013-03-11 22:47:00,
2013-03-11 15:52:00,49.2,45.5,30.29,South,170,9.2,9.2,87,0.00,OVC,,0.01,WeatherDisplay:10.37,2013-03-11 22:52:00,
2013-03-11 15:58:00,49.3,45.0,30.29,SSE,155,11.5,11.5,85,0.00,OVC,,0.01,WeatherDisplay:10.37,2013-03-11 22:58:00,
2013-03-11 16:03:00,49.4,45.1,30.29,SE,126,6.9,6.9,85,0.00,OVC,,0.01,WeatherDisplay:10.37,2013-03-11 23:03:00,
2013-03-11 16:08:00,49.5,45.2,30.30,South,184,5.8,5.8,85,0.00,OVC,,0.01,WeatherDisplay:10.37,2013-03-11 23:08:00,
2013-03-11 16:13:00,49.4,44.8,30.30,SSE,161,6.9,6.9,84,0.00,OVC,,0.01,WeatherDisplay:10.37,2013-03-11 23:13:00,
2013-03-11 16:18:00,49.4,45.1,30.29,SSE,157,9.2,9.2,85,0.00,OVC,,0.01,WeatherDisplay:10.37,2013-03-11 23:18:00,
2013-03-11 16:23:00,49.4,45.4,30.29,SSE,150,10.0,10.0,86,0.00,OVC,,0.01,WeatherDisplay:10.37,2013-03-11 23:23:00,
2013-03-11 16:28:00,49.5,45.2,30.29,SE,138,5.8,5.8,85,0.00,OVC,,0.01,WeatherDisplay:10.37,2013-03-11 23:28:00,
2013-03-11 16:33:00,49.4,45.1,30.28,SSE,150,5.0,5.0,85,0.00,OVC,,0.01,WeatherDisplay:10.37,2013-03-11 23:33:00,
2013-03-11 16:38:00,49.4,45.1,30.29,SSE,160,10.4,10.4,85,0.00,OVC,,0.01,WeatherDisplay:10.37,2013-03-11 23:38:00,
2013-03-11 16:43:00,49.2,44.9,30.29,SSE,158,8.1,8.1,85,0.00,OVC,,0.01,WeatherDisplay:10.37,2013-03-11 23:43:00,
2013-03-11 16:48:00,49.1,45.1,30.28,SE,139,11.5,11.5,86,0.00,OVC,,0.01,WeatherDisplay:10.37,2013-03-11 23:48:00,
2013-03-11 16:53:00,49.0,45.0,30.28,SE,140,10.0,10.0,86,0.00,OVC,,0.01,WeatherDisplay:10.37,2013-03-11 23:53:00,
2013-03-11 16:58:00,49.0,45.0,30.28,SE,143,10.4,10.4,86,0.00,OVC,,0.01,WeatherDisplay:10.37,2013-03-11 23:58:00,
2013-03-11 17:03:00,49.0,45.0,30.28,SSE,154,9.2,9.2,86,0.00,OVC,,0.01,WeatherDisplay:10.37,2013-03-12 00:03:00,
2013-03-11 17:08:00,49.0,45.3,30.27,SE,133,10.4,10.4,87,0.00,OVC,,0.01,WeatherDisplay:10.37,2013-03-12 00:08:00,
2013-03-11 17:13:00,49.0,45.3,30.27,SSE,153,11.5,11.5,87,0.00,OVC,,0.01,WeatherDisplay:10.37,2013-03-12 00:13:00,
2013-03-11 17:18:00,48.9,45.2,30.27,SSE,166,10.4,10.4,87,0.00,OVC,,0.01,WeatherDisplay:10.37,2013-03-12 00:18:00,
2013-03-11 17:23:00,48.9,45.2,30.27,SSE,159,9.2,9.2,87,0.00,OVC,,0.01,WeatherDisplay:10.37,2013-03-12 00:23:00,
2013-03-11 17:28:00,48.9,45.2,30.27,SE,137,11.5,11.5,87,0.00,OVC,,0.01,WeatherDisplay:10.37,2013-03-12 00:28:00,
2013-03-11 17:33:00,48.9,45.2,30.26,SSE,155,5.8,5.8,87,0.00,OVC,,0.01,WeatherDisplay:10.37,2013-03-12 00:33:00,
2013-03-11 17:38:00,48.9,45.2,30.26,SE,142,6.9,6.9,87,0.00,OVC,,0.01,WeatherDisplay:10.37,2013-03-12 00:38:00,
2013-03-11 17:43:00,49.0,45.3,30.27,South,170,10.4,10.4,87,0.00,OVC,,0.01,WeatherDisplay:10.37,2013-03-12 00:43:00,
2013-03-11 17:48:00,49.0,45.3,30.26,SSE,149,10.4,10.4,87,0.00,OVC,,0.01,WeatherDisplay:10.37,2013-03-12 00:48:00,
2013-03-11 17:53:00,49.0,45.3,30.26,SE,128,11.5,11.5,87,0.00,OVC,,0.01,WeatherDisplay:10.37,2013-03-12 00:53:00,
2013-03-11 17:58:00,49.0,45.3,30.26,SE,136,8.1,8.1,87,0.00,OVC,,0.01,WeatherDisplay:10.37,2013-03-12 00:58:00,
2013-03-11 18:03:00,49.0,45.3,30.26,South,169,6.9,6.9,87,0.00,OVC,,0.01,WeatherDisplay:10.37,2013-03-12 01:03:00,
2013-03-11 18:08:00,49.0,45.3,30.26,SE,140,10.4,10.4,87,0.00,OVC,,0.01,WeatherDisplay:10.37,2013-03-12 01:08:00,
2013-03-11 18:13:00,48.9,45.5,30.26,SSE,159,9.2,9.2,88,0.00,OVC,,0.01,WeatherDisplay:10.37,2013-03-12 01:13:00,
2013-03-11 18:18:00,48.8,45.4,30.26,SSE,147,6.9,6.9,88,0.00,OVC,,0.01,WeatherDisplay:10.37,2013-03-12 01:18:00,
2013-03-11 18:23:00,48.7,45.3,30.26,SSE,156,5.8,5.8,88,0.00,OVC,,0.01,WeatherDisplay:10.37,2013-03-12 01:23:00,
2013-03-11 18:28:00,48.6,45.5,30.26,SSE,148,5.8,5.8,89,0.00,OVC,,0.01,WeatherDisplay:10.37,2013-03-12 01:28:00,
2013-03-11 18:33:00,48.4,45.3,30.26,SSE,154,8.0,8.0,89,0.00,OVC,,0.01,WeatherDisplay:10.37,2013-03-12 01:33:00,
2013-03-11 18:38:00,48.3,45.2,30.26,SSE,148,11.5,11.5,89,0.00,OVC,,0.01,WeatherDisplay:10.37,2013-03-12 01:38:00,
2013-03-11 18:43:00,48.2,45.4,30.26,SSE,155,5.8,5.8,90,0.00,OVC,,0.01,WeatherDisplay:10.37,2013-03-12 01:43:00,
2013-03-11 18:48:00,48.2,46.6,30.26,SSE,158,9.2,9.2,94,0.00,OVC,,0.01,WeatherDisplay:10.37,2013-03-12 01:48:00,
2013-03-11 18:53:00,48.2,45.4,30.26,SE,144,6.0,6.0,90,0.00,OVC,,0.01,WeatherDisplay:10.37,2013-03-12 01:53:00,
2013-03-11 18:58:00,48.2,46.6,30.26,SE,146,10.4,10.4,94,0.00,OVC,,0.01,WeatherDisplay:10.37,2013-03-12 01:58:00,
2013-03-11 19:03:00,48.2,45.4,30.26,SSE,147,10.4,10.4,90,0.00,OVC,,0.01,WeatherDisplay:10.37,2013-03-12 02:03:00,
2013-03-11 19:08:00,48.1,45.3,30.25,SE,144,5.8,5.8,90,0.00,OVC,,0.01,WeatherDisplay:10.37,2013-03-12 02:08:00,
2013-03-11 19:13:00,48.1,45.6,30.25,SSE,147,9.2,9.2,91,0.00,OVC,,0.01,WeatherDisplay:10.37,2013-03-12 02:13:00,
2013-03-11 19:18:00,48.1,45.6,30.26,SSE,155,6.9,6.9,91,0.00,OVC,,0.01,WeatherDisplay:10.37,2013-03-12 02:18:00,
2013-03-11 19:23:00,48.0,45.5,30.26,SSE,162,8.1,8.1,91,0.00,OVC,,0.01,WeatherDisplay:10.37,2013-03-12 02:23:00,
2013-03-11 19:28:00,48.0,45.5,30.25,SSE,157,10.4,10.4,91,0.00,OVC,,0.01,WeatherDisplay:10.37,2013-03-12 02:28:00,
2013-03-11 19:33:00,47.9,45.4,30.24,SSE,151,11.0,11.0,91,0.00,OVC,,0.01,WeatherDisplay:10.37,2013-03-12 02:33:00,
2013-03-11 19:38:00,47.9,45.7,30.25,SSE,150,10.4,10.4,92,0.00,OVC,,0.01,WeatherDisplay:10.37,2013-03-12 02:38:00,
2013-03-11 19:43:00,47.9,45.7,30.25,SSE,154,11.5,11.5,92,0.00,OVC,,0.01,WeatherDisplay:10.37,2013-03-12 02:43:00,
2013-03-11 19:48:00,48.0,45.8,30.25,SSE,158,11.0,11.0,92,0.00,OVC,,0.01,WeatherDisplay:10.37,2013-03-12 02:48:00,
2013-03-11 19:53:00,48.0,45.8,30.24,SE,138,4.6,4.6,92,0.00,OVC,,0.01,WeatherDisplay:10.37,2013-03-12 02:53:00,
2013-03-11 19:58:00,48.1,45.9,30.25,SSE,150,13.8,13.8,92,0.00,OVC,,0.01,WeatherDisplay:10.37,2013-03-12 02:58:00,
2013-03-11 20:03:00,48.1,45.9,30.24,SE,146,8.1,8.1,92,0.00,OVC,,0.01,WeatherDisplay:10.37,2013-03-12 03:03:00,
2013-03-11 20:08:00,48.2,46.0,30.25,SSE,158,9.0,9.0,92,0.00,OVC,,0.01,WeatherDisplay:10.37,2013-03-12 03:08:00,
2013-03-11 20:13:00,48.3,46.1,30.25,SSE,150,9.2,9.2,92,0.00,OVC,,0.01,WeatherDisplay:10.37,2013-03-12 03:13:00,
2013-03-11 20:18:00,48.5,46.0,30.25,SE,142,12.7,12.7,91,0.00,OVC,,0.01,WeatherDisplay:10.37,2013-03-12 03:18:00,
2013-03-11 20:23:00,48.5,46.0,30.25,SSE,155,9.2,9.2,91,0.00,OVC,,0.01,WeatherDisplay:10.37,2013-03-12 03:23:00,
2013-03-11 20:28:00,48.6,46.1,30.25,SSE,160,6.0,6.3,91,0.00,OVC,,0.01,WeatherDisplay:10.37,2013-03-12 03:28:00,
2013-03-11 20:33:00,48.6,46.1,30.25,SE,134,11.5,11.5,91,0.00,OVC,,0.01,WeatherDisplay:10.37,2013-03-12 03:33:00,
2013-03-11 20:38:00,48.6,46.1,30.25,SE,128,9.2,9.2,91,0.00,OVC,,0.01,WeatherDisplay:10.37,2013-03-12 03:38:00,
2013-03-11 20:43:00,48.6,46.1,30.25,SSE,148,4.0,4.0,91,0.00,OVC,,0.01,WeatherDisplay:10.37,2013-03-12 03:43:00,
2013-03-11 20:48:00,48.6,46.1,30.25,SSE,159,9.2,9.2,91,0.00,OVC,,0.01,WeatherDisplay:10.37,2013-03-12 03:48:00,
2013-03-11 20:53:00,48.6,46.4,30.25,SE,139,8.0,8.0,92,0.00,OVC,,0.01,WeatherDisplay:10.37,2013-03-12 03:53:00,
2013-03-11 20:58:00,48.6,46.4,30.25,SSE,157,5.8,5.8,92,0.00,OVC,,0.01,WeatherDisplay:10.37,2013-03-12 03:58:00,
2013-03-11 21:00:00,48.6,46.4,30.25,SSE,155,5.0,5.0,92,0.00,OVC,,0.01,WeatherDisplay:10.37,2013-03-12 04:00:00,
2013-03-11 21:05:00,48.7,46.5,30.25,SE,142,11.5,11.5,92,0.00,OVC,,0.01,WeatherDisplay:10.37,2013-03-12 04:05:00,
2013-03-11 21:10:00,48.7,46.5,30.25,SE,145,11.5,11.5,92,0.00,OVC,,0.01,WeatherDisplay:10.37,2013-03-12 04:10:00,
2013-03-11 21:15:00,48.7,46.5,30.24,SSE,148,11.5,11.5,92,0.00,OVC,,0.01,WeatherDisplay:10.37,2013-03-12 04:15:00,
2013-03-11 21:20:00,48.7,46.5,30.25,SE,144,5.8,5.8,92,0.00,OVC,,0.01,WeatherDisplay:10.37,2013-03-12 04:20:00,
2013-03-11 21:25:00,48.7,46.5,30.25,SE,146,4.6,4.6,92,0.00,OVC,,0.01,WeatherDisplay:10.37,2013-03-12 04:25:00,
2013-03-11 21:30:00,48.7,46.5,30.25,SSE,157,4.6,4.6,92,0.00,OVC,,0.01,WeatherDisplay:10.37,2013-03-12 04:30:00,
2013-03-11 21:35:00,48.6,46.4,30.25,SSE,157,4.6,4.6,92,0.00,OVC,,0.01,WeatherDisplay:10.37,2013-03-12 04:35:00,
2013-03-11 21:40:00,48.6,46.4,30.25,SSE,157,3.5,3.5,92,0.00,OVC,,0.01,WeatherDisplay:10.37,2013-03-12 04:40:00,
2013-03-11 21:45:00,48.6,46.7,30.25,SSE,148,6.9,6.9,93,0.00,OVC,,0.01,WeatherDisplay:10.37,2013-03-12 04:45:00,
2013-03-11 21:50:00,48.7,46.8,30.25,SE,133,5.0,5.0,93,0.00,OVC,,0.01,WeatherDisplay:10.37,2013-03-12 04:50:00,
2013-03-11 21:55:00,48.7,46.8,30.25,SSE,148,11.0,11.0,93,0.00,OVC,,0.01,WeatherDisplay:10.37,2013-03-12 04:55:00,
2013-03-11 22:00:00,48.7,46.8,30.26,SSE,151,7.0,7.0,93,0.00,OVC,,0.01,WeatherDisplay:10.37,2013-03-12 05:00:00,
2013-03-11 22:05:00,48.8,46.9,30.25,SE,142,9.2,9.2,93,0.00,OVC,,0.01,WeatherDisplay:10.37,2013-03-12 05:05:00,
2013-03-11 22:10:00,48.8,46.9,30.25,SSE,148,4.6,4.6,93,0.00,OVC,,0.01,WeatherDisplay:10.37,2013-03-12 05:10:00,
2013-03-11 22:15:00,48.8,46.9,30.25,SSE,147,6.9,6.9,93,0.00,OVC,,0.01,WeatherDisplay:10.37,2013-03-12 05:15:00,
2013-03-11 22:20:00,48.8,46.9,30.25,SE,146,9.2,9.2,93,0.00,OVC,,0.01,WeatherDisplay:10.37,2013-03-12 05:20:00,
2013-03-11 22:25:00,48.8,46.9,30.25,SE,145,8.1,8.1,93,0.00,OVC,,0.01,WeatherDisplay:10.37,2013-03-12 05:25:00,
2013-03-11 22:30:00,48.8,46.9,30.25,SSE,147,4.6,4.6,93,0.00,OVC,,0.01,WeatherDisplay:10.37,2013-03-12 05:30:00,
2013-03-11 22:35:00,48.8,46.9,30.25,SSE,159,3.5,3.5,93,0.00,OVC,,0.01,WeatherDisplay:10.37,2013-03-12 05:35:00,
2013-03-11 22:40:00,48.9,47.0,30.24,SSE,162,3.5,3.5,93,0.00,OVC,,0.01,WeatherDisplay:10.37,2013-03-12 05:40:00,
2013-03-11 22:45:00,48.9,47.0,30.24,SSE,148,3.5,3.5,93,0.00,OVC,,0.01,WeatherDisplay:10.37,2013-03-12 05:45:00,
2013-03-11 22:50:00,48.8,46.9,30.24,SE,142,0.0,0.4,93,0.00,OVC,,0.01,WeatherDisplay:10.37,2013-03-12 05:50:00,
2013-03-11 22:55:00,48.9,47.0,30.24,SSE,147,4.6,4.6,93,0.00,OVC,,0.01,WeatherDisplay:10.37,2013-03-12 05:55:00,
2013-03-11 23:00:00,48.9,47.0,30.24,SE,144,4.0,4.0,93,0.00,OVC,,0.01,WeatherDisplay:10.37,2013-03-12 06:00:00,
2013-03-11 23:05:00,48.9,47.0,30.24,SE,138,5.0,5.0,93,0.00,OVC,,0.01,WeatherDisplay:10.37,2013-03-12 06:05:00,
2013-03-11 23:10:00,49.0,47.1,30.23,SSE,150,3.5,3.5,93,0.00,OVC,,0.01,WeatherDisplay:10.37,2013-03-12 06:10:00,
2013-03-11 23:15:00,49.0,47.1,30.23,SSE,153,3.5,3.5,93,0.00,OVC,,0.01,WeatherDisplay:10.37,2013-03-12 06:15:00,
2013-03-11 23:20:00,49.0,47.1,30.23,SSE,153,1.1,1.1,93,0.00,OVC,,0.01,WeatherDisplay:10.37,2013-03-12 06:20:00,
2013-03-11 23:25:00,49.0,47.1,30.23,SSE,153,2.3,2.3,93,0.00,OVC,,0.01,WeatherDisplay:10.37,2013-03-12 06:25:00,
2013-03-11 23:30:00,49.0,47.1,30.23,SSE,153,3.5,3.5,93,0.00,OVC,,0.01,WeatherDisplay:10.37,2013-03-12 06:30:00,
2013-03-11 23:35:00,49.0,47.1,30.23,SSE,150,4.6,4.6,93,0.00,OVC,,0.01,WeatherDisplay:10.37,2013-03-12 06:35:00,
2013-03-11 23:40:00,49.1,47.2,30.23,SSE,157,6.0,6.0,93,0.00,OVC,,0.01,WeatherDisplay:10.37,2013-03-12 06:40:00,
2013-03-11 23:45:00,49.2,47.3,30.23,SSE,148,5.0,5.0,93,0.00,OVC,,0.01,WeatherDisplay:10.37,2013-03-12 06:45:00,
2013-03-11 23:50:00,49.2,47.3,30.23,SE,146,4.6,4.6,93,0.00,OVC,,0.01,WeatherDisplay:10.37,2013-03-12 06:50:00,
2013-03-11 23:55:00,49.2,47.3,30.23,SE,132,6.9,6.9,93,0.00,OVC,,0.01,WeatherDisplay:10.37,2013-03-12 06:55:00,